User: anonymous   Login
Location: Newark
(49.3000°N, 9.4667°E)
Time: 16:48:47
(UTC+00:00)
Language:

Explorer 11/Cluster Stage 4 - Orbit

View from above orbital plane
View from above orbital plane
View from above satellite
View from above satellite

Ground track
Ground track

The orbit data is extracted from the following two-line orbital elements,

1   107U 61013A   19144.48728698  .00000290  00000-0  19432-4 0  9994
2   107  28.7861 223.5453 0547457 132.2843 232.5478 14.08777752910730
Epoch (UTC): 24 May 2019 11:41:41
Eccentricity: 0.0547457
inclination: 28.7861°
perigee height: 467 km
apogee height: 1260 km
right ascension of ascending node: 223.5453°
argument of perigee: 132.2843°
revolutions per day: 14.08777752
mean anomaly at epoch: 232.5478°
orbit number at epoch: 91073

The dashed part of the orbit path shows where the satellite is in the earth's shadow,  

DLR